Weather in San Pedro de Alcantara

Spain     36°29′14″N   4°59′25″W
temp.,
°C
wind,
m/s
gust,
m/s
humid.,
%
clouds,
%
prec.,
mm/h
press.,
hPa
HPBL,
m
10 april, sat
sat1023:00+12e2492100 0.0 1017269
02:00+13ene2492100 0.2 1017278
05:00+13ene239096 0.1 1015232
08:00+13e249590 0.4 1015248
11:00+15e348622 0.8 1016460
14:00+16ese338058 1.6 1015768
17:00+17se327639 0.2 1014786
20:00+15s218966 0.3 1014315
11 april, sun
sun1123:00+14w118862 0.0 1015122
02:00+13wnw119120 0.0 101586
05:00+12nw22872 0.0 101449
08:00+12nw22740 0.0 101546
11:00+18sw23560 0.0 1016724
14:00+21sw455036 0.0 10151616
17:00+21w454939 0.0 10141539
20:00+19w235572 0.0 1015488
12 april, mon
mon1223:00+15nnw3369100 0.0 101756
02:00+15nnw226451 0.0 101732
05:00+14n2265100 0.0 101734
08:00+15n2266100 0.0 101828
11:00+19ese235734 0.0 1020598
14:00+18e777160 0.1 10211021
17:00+16e4568100 0.1 1021711
20:00+16e3571100 0.1 1022570
13 april, tue
tue1323:00+14e3690100 0.1 1024569
02:00+13ene368681 0.4 1024610
05:00+12ene4682100 0.0 1023539
08:00+13ene468185 0.1 1023690
11:00+15e467367 0.1 1024936
14:00+17ese5662100 0.1 1023984
17:00+16ese4656100 0.0 1022768
20:00+15e355996 0.0 1021442
14 april, wed
wed1423:00+13ne356499 0.0 1022305
02:00+12ene368194 0.0 1022423
05:00+12ene3582100 0.0 1020437
08:00+13e3678100 0.0 1020625
11:00+15e5766100 0.0 1020907
14:00+16ese5754100 0.0 10191078
17:00+15ese4662100 0.0 1017894
20:00+14e4773100 0.2 10171045